Regional Weather Roundup
Issued by NWS

Home | Current Version | Previous Version | Text Only | Print | Product List | Glossary Off
Versions: 1 2 3 4 5 6 7 8 9 10 11 12 13 14 15 16 17 18 19 20 21 22 23 24 25 26 27 28 29 30 31 32 33 34 35 36 37 38 39 40 41 42 43 44 45 46 47 48 49 50

000
ASUS43 KBIS 221710
RWRND

NORTH DAKOTA REGIONAL WEATHER ROUNDUP
NATIONAL WEATHER SERVICE BISMARCK ND
1200 PM CDT FRI AUG 22 2014

NOTE: "FAIR" INDICATES FEW OR NO CLOUDS BELOW 12,000 FEET WITH NO
SIGNIFICANT WEATHER AND/OR OBSTRUCTIONS TO VISIBILITY.


NDZ001>003-009>011-017-221800-
NORTHWEST NORTH DAKOTA

CITY           SKY/WX    TMP DP  RH WIND       PRES   REMARKS
WILLISTON      PTSUNNY   68  53  58 NE16      30.10F
MINOT          CLOUDY    62  59  90 N10       30.09S
MINOT AFB      DRIZZLE   60  60 100 NE10      30.09S FOG
$$

NDZ018>021-031>035-040>046-221800-
SOUTHWEST NORTH DAKOTA

CITY           SKY/WX    TMP DP  RH WIND       PRES   REMARKS
BISMARCK       PTSUNNY   75  64  68 SE5       30.05S
DICKINSON      CLOUDY    67  61  81 E8        30.06S
GARRISON         N/A     65  61  87 NE8       30.07S
HETTINGER ARPT CLOUDY    66  59  78 VRB3      30.09R
$$

NDZ004>008-012>016-024-026-027-054-221800-
NORTHEAST NORTH DAKOTA

CITY           SKY/WX    TMP DP  RH WIND       PRES   REMARKS
GRAND FORKS    CLOUDY    68  64  87 N10       29.99S
GRND FRKS AFB  CLOUDY    67  66  99 N14       30.01S
DEVILS LAKE    CLOUDY    66  57  72 N9        30.04S
$$

NDZ022-023-025-028>030-036>039-047>053-221800-
SOUTHEAST NORTH DAKOTA

CITY           SKY/WX    TMP DP  RH WIND       PRES   REMARKS
FARGO          CLOUDY    72  68  87 N9        29.97F
JAMESTOWN      CLOUDY    69  65  86 N7        30.03R
$$




USA.gov is the U.S. government's official web portal to all federal, state and local government web resources and services.